map of BOY home
BOY - Airport
Location
City:  Bobo/Dioulasso, Burkina Faso
ICAO:DFOO
IATA:BOY

Details
Type:Airport (Aerodrome, Airfield)
Use:Public/Civil, International (customs port of entry)
Latitude:1109'36"N (11.160056)
Longitude:419'51"W (-4.330968)
Datum:WGS 1984
Elevation:1511 ft (461 m)
Variation:3.20W (WMM2015 magnetic declination)
0.10 annual change
Runways:1
Longest:10826 × 148 ft (3300 × 45 m), paved

Time
Time Zone:UTC+0
Local Time:

Weather
METAR:DFOO 182000Z 36004KT 8000 NSC 29/15 Q1012
TAF:DFOO 181700Z 1818/1918 VRB08KT 8000 NSC PROB30
TEMPO 1904/1909 TS FEW026 FEW036CB

Related Locations
Nearby:
Farthest:RTA: 12307 mi / 19807 km
Elsee, Rotuma Island, FJ

Find:

   beyond  
but within

Other Information
Maps:
NOTAMs:
Links:
Sources:

  
  • flag of Burkina Faso
  

Sectional Chart

Flight Planning
at skyvector.com

Satellite Image

Google Maps Satellite view

 

Copyright © 2004-2019 Karl L. Swartz. All rights reserved.
The Great Circle Mapper name and logo are trademarks of the Great Circle Mapper.
All other trademarks mentioned herein belong to their respective owners.
Please see credits for attibutions and further copyright information.

  Follow gcmap on Facebook Follow gcmap on Twitter Follow gcmap on Google+ GCmap on LinkedIn

hCard Microformat

Geo Microformat